Regional Weather Roundup
Issued by NWS

Home | Current Version | Previous Version | Text Only | Print | Product List | Glossary On
Versions: 1 2 3 4 5 6 7 8 9 10 11 12 13 14 15 16 17 18 19 20 21 22 23 24 25 26 27 28 29 30 31 32 33 34 35 36 37 38 39 40 41 42 43 44 45 46 47 48 49 50
000
ASUS43 KLOT 240308
RWRIL

ILLINOIS REGIONAL WEATHER ROUNDUP
NATIONAL WEATHER SERVICE CHICAGO/ROMEOVILLE IL
1000 PM CDT MON APR 23 2018

NOTE: "FAIR" INDICATES FEW OR NO CLOUDS BELOW 12,000 FEET WITH NO
SIGNIFICANT WEATHER AND/OR OBSTRUCTIONS TO VISIBILITY.

* THESE STATIONS ARE NOT UNDER NWS QUALITY CONTROL. THEY ALSO MAY NOT
  REPORT WEATHER SUCH AS PRECIPITATION OR FOG.

ILZ001-002-007-009-015-016-024-240400-
NORTHWEST ILLINOIS

CITY           SKY/WX    TMP DP  RH WIND       PRES   REMARKS
MOLINE         FAIR      61  34  36 E9        30.06R
STERLING*      FAIR      57  32  38 E13       30.09R
SAVANNA*       FAIR      55  34  45 NE3       30.09R
$$

ILZ003-004-008-010-011-017-018-240400-
NORTH CENTRAL ILLINOIS

CITY           SKY/WX    TMP DP  RH WIND       PRES   REMARKS
ROCKFORD       MOCLDY    57  28  33 E3        30.11S
FREEPORT*      FAIR      49  32  51 CALM      30.12R
ROCHELLE*      FAIR      54  32  43 E7        30.10S
DE KALB*       FAIR      54  29  38 E9        30.11S
PERU*          CLOUDY    56  41  56 E14       30.09F
$$

ILZ005-006-012>014-019>023-240400-
NORTHEAST ILLINOIS

CITY           SKY/WX    TMP DP  RH WIND       PRES   REMARKS
CHICAGO-OHARE  CLOUDY    50  29  44 N10       30.11F
CHICAGO-MIDWAY CLOUDY    51  31  46 NE6       30.11F
AURORA         CLOUDY    54  25  32 NE14      30.10S
LANSING*       LGT RAIN  47  40  77 NE5       30.11S
JOLIET*        CLOUDY    55  32  42 NE6       30.11R
WAUKEGAN       FAIR      46  30  53 VRB7      30.12R
DUPAGE AIRPORT CLOUDY    52  27  38 NE12      30.10F
KANKAKEE*      CLOUDY    47  46  95 NE9       30.09F FOG
WHEELING       MOCLDY    48  30  49 NE5       30.14F
MORRIS*        CLOUDY    52  35  53 NE6       30.09S
ROMEOVILLE*    CLOUDY    52  31  44 E7        30.11R
NORTHERLY ISL    N/A     48  31  52 NW6         N/A
$$

LMZ740>746-240400-
SOUTHERN LAKE MICHIGAN

STATION/POSITION SKY/WX   TEMP    WIND        PRES    VSBY  WAVE
                          AIR SEA DIR/SP/G                  HT/PER
                          (F)     (DEG/KT/KT) (MB)    (MI)  (FT/S)
HARRISON CRIB              43     330/ 10/ 11   N/A
BURNHAM HARBOR             48     340/  5/  8   N/A
CALUMET HARBOR             45     340/  5/  7 1019.2S
BURNS HARBOR               44      CALM  /  3 1020.3S
MICHIGAN CITY              44      30/  4/  4   N/A
ST. JOSEPH                 45 42   CALM  /  2 1020.5          1/ 4
$$

ILZ025>027-034>036-040-047-049-050-058-095>099-240400-
WEST-CENTRAL ILLINOIS

CITY           SKY/WX    TMP DP  RH WIND       PRES   REMARKS
QUINCY         CLOUDY    61  42  49 E10       30.02R
GALESBURG*     FAIR      63  47  55 E9        30.06R
MACOMB*        CLOUDY    58  52  82 SE9       30.07R
JACKSONVILLE*  LGT RAIN  55  54  96 NE8       30.03S
PITTSFIELD*    DRIZZLE   57  55  92 NE7       30.04S
$$

ILZ028>032-037-038-041>044-048-051>054-059>061-240400-
CENTRAL ILLINOIS

CITY           SKY/WX    TMP DP  RH WIND       PRES   REMARKS
PONTIAC        DRIZZLE   50  50  99 NE12      30.09S
BLOOMINGTON    LGT RAIN  54  53  97 NE10      30.06F FOG
DECATUR        LGT RAIN  55  55 100 NE12      30.03R FOG
PEORIA         CLOUDY    57  54  89 E9        30.06F
LACON*         CLOUDY    55  41  59 E7        30.07S
LINCOLN*       LGT RAIN  56  56 100 NE7       30.05S
SPRINGFIELD    LGT RAIN  57  56  96 NE8       30.04R FOG
TAYLORVILLE    DRIZZLE   55  54  98 NE9       30.02S
$$

ILZ033-039-045-046-055>057-062-063-240400-
EAST-CENTRAL ILLINOIS

CITY           SKY/WX    TMP DP  RH WIND       PRES   REMARKS
CHAMPAIGN      CLOUDY    55  54  96 NE12      30.03S FOG
DANVILLE*      CLOUDY    54  54 100 E8        30.02S
RANTOUL*       LGT RAIN  56  56  99 NE9       30.05S
MATTOON        LGT RAIN  54  54 100 NE8       30.00S FOG
PARIS*         RAIN      54  54 100 NE8       30.02S
$$

ILZ079-100>102-240400-
SOUTHWEST ILLINOIS

CITY           SKY/WX    TMP DP  RH WIND       PRES   REMARKS
ALTON          CLOUDY    55  54  94 N6        30.01S
BELLEVILLE     CLOUDY    57  54  91 N6        29.97S
CAHOKIA*       CLOUDY    57  54  89 N8        29.99S
SPARTA*        CLOUDY    56  56 100 N6        29.98S
$$

ILZ064>066-069>071-074>076-080>082-084>086-088>090-092>094-240400-
SOUTH-CENTRAL ILLINOIS

CITY           SKY/WX    TMP DP  RH WIND       PRES   REMARKS
CARBONDALE     CLOUDY    56  54  93 N3        29.95S
CAIRO*         FAIR      57  57  99 CALM      29.93S
EFFINGHAM*     DRIZZLE   56  56 100 N5        30.01S
MARION         CLOUDY    55  55  98 NE3       29.96S
MT. VERNON     CLOUDY    57  55  93 NE7       29.96S
CENTRALIA*     CLOUDY    58  56  94 N6        29.97S
SALEM*         CLOUDY    58  55  91 NE7       29.98S
METROPOLIS*    CLOUDY    54  53  99 CALM      29.94S FOG
$$

ILZ067-068-072-073-078-083-087-091-240400-
SOUTHEAST ILLINOIS

CITY           SKY/WX    TMP DP  RH WIND       PRES   REMARKS
LAWRENCEVILLE  CLOUDY    57  55  93 MISG      29.98S
FLORA*         LGT RAIN  58  56  93 NE8       29.98R
FAIRFIELD*     MOCLDY    57  56  96 N5        29.96R
HARRISBURG*    MOCLDY    58  58 100 N6        29.95S
ROBINSON*      CLOUDY    55  55  99 E6        30.00S
CARMI*         DRIZZLE   57  57  97 NE5       29.95S
$$

ABBREVIATIONS USED IN REMARKS
   TC - TEMPERATURE IN CELSIUS
  WCI - WIND CHILL INDEX
   HX - HEAT INDEX
  VSB - VISIBILITY
$$





USA.gov is the U.S. government's official web portal to all federal, state and local government web resources and services.